Location: Ponte Samoggia
(44.5667°N, 11.1333°E)
Time: 22:30:08
(UTC+00:00)

IRS-1D - Pass Details

Date: 26 May 2022
Orbit: 740 x 816 km, 98.7° (Epoch: 26 June)

Event Time Altitude Azimuth Distance (km) Brightness Sun altitude
Rises 01:55:32 0° 15° (NNE) 3,352 8.1 -14.5°
Reaches altitude 10° 01:57:54 10° 16° (NNE) 2,413 7.2 -14.3°
Maximum altitude 02:03:16 79° 103° (ESE) 828 3.7 -13.6°
Enters shadow 02:07:54 14° 190° (S) 2,126 5.3 -13.1°
